Simultaneous Nadir Overpasses (SNOs) Predictions

Prediction of SNOs between AQUA and NOAA-19 Satellite Orbit:

Table of predicted SNOs for the next 14.0 days since TLE Epoch: 5/10/2013
Index Date (AQUA) Time (AQUA) Lat,Lon (AQUA) SZA (AQUA ) Date (NOAA-19) Time (NOAA-19) Lat,Lon (NOAA-19) SZA (NOAA-19 ) Distance(km) Time Diff (sec)
1 05/12/2013 14:51:54 -65.56, 142.66 132.65 05/12/2013 14:50:40 -65.39, 141.87 132.87 40.75 74
2 05/12/2013 15:35:49 46.07, -38.50 30.76 05/12/2013 15:36:05 46.02, -38.88 30.61 30.50 16
3 05/14/2013 19:31:42 -50.27, 81.16 146.50 05/14/2013 19:30:30 -50.22, 81.03 146.66 10.55 72
4 05/14/2013 20:20:01 46.11,-109.56 30.30 05/14/2013 20:20:27 46.04,-109.97 30.14 32.47 26
5 05/17/2013 00:15:43 -49.68, 10.36 147.45 05/17/2013 00:14:41 -49.64, 10.22 147.60 10.80 62
6 05/17/2013 01:04:12 46.11, 179.39 29.83 05/17/2013 01:04:48 46.02, 178.96 29.65 34.52 36
7 05/19/2013 04:59:44 -49.10, -60.45 148.36 05/19/2013 04:58:52 -49.07, -60.60 148.50 11.40 52
8 05/19/2013 05:48:22 46.08, 108.35 29.36 05/19/2013 05:49:09 46.01, 107.89 29.20 36.52 47
9 05/21/2013 09:43:44 -48.49,-131.25 149.27 05/21/2013 09:43:02 -48.45,-131.40 149.41 12.08 42
10 05/21/2013 10:32:33 46.12, 37.29 28.96 05/21/2013 10:33:30 46.02, 36.82 28.78 38.60 57
11 05/23/2013 14:27:45 -47.95, 157.92 150.10 05/23/2013 14:27:13 -47.90, 157.76 150.24 13.22 32




NCC Satellite Simultaneous Nadir Overpasses (SNOs) Prediction Service
